Location: Gülübeli Geçidi
(36.8411°N, 29.7411°E)
Time: 15:13:40
(UTC+00:00)

Okean O Rocket - Pass Details

Date: 15 May 2026
Orbit: 614 x 633 km, 98.0° (Epoch: 10 June)

Event Time Altitude Azimuth Distance (km) Brightness Sun altitude
Exits shadow 19:52:35 21° 250° (WSW) 1,377 3.4 -26.9°
Maximum altitude 19:53:18 22° 265° (W) 1,342 3.5 -26.9°
Drops below altitude 10° 19:56:40 10° 317° (NW) 1,977 5.1 -27.3°
Sets 19:59:16 0° 332° (NNW) 2,887 6.3 -27.6°
